Flag for Switzerland Weather past 2 weeks in Liestal, Basel-Land, Switzerland

Now
57 °F

Partly sunny.


Feels Like: 56 °F
Forecast: 38 / 64 °F
Wind: 6 mph from North

Location: Bale-Mulhouse


UV Index: 0 (Low)

Visibility: N/A


Pressure: 29.71 "Hg

Humidity: 51%

Dew point: 39 °F

Location of LiestalLocation

Historic Weather in Liestal

°F

Liestal temperature yesterday

Maximum temperature yesterday: 46 °F (at 3:30 PM)
Minimum temperature yesterday: 32 °F (at 2:00 AM)
Average temperature yesterday: 41 °F

Past Weeks' High & Low Weather Summary

 TemperatureHumidityPressure
High73 °F (Apr 7, 5:30 PM)100% (Apr 6, 1:00 AM)30.33 "Hg (Apr 6, 1:00 AM)
Low27 °F (Apr 16, 6:00 AM)24% (Apr 17, 6:00 PM)29.71 "Hg (Apr 20, 4:00 AM)
Average52 °F63%30.08 "Hg
* Reported Apr 5 11:00 AM — Apr 20 11:30 AM, Liestal, Weather by CustomWeather, © 2014

Note: Actual official high and low records may vary slightly from our data, if they occured in-between our weather recording intervals... More about our weather records

Advertising

Historic Weather Conditions — Data for Previous 24 hours

 ConditionsComfort  
Time TempWeatherWind HumidityBarometerVisibility
11:30 AM
Apr 20
55 °FPartly sunny.5 mph59%29.71 "HgN/A
10:30 AM54 °FPartly sunny.6 mph63%29.71 "HgN/A
10:00 AM52 °FPartly sunny.3 mph72%29.71 "HgN/A
9:30 AM50 °FPartly sunny.3 mph71%29.71 "HgN/A
9:00 AM48 °FBroken clouds.1 mph82%29.71 "Hg6 mi
8:30 AM46 °FBroken clouds.2 mph87%29.71 "Hg6 mi
8:00 AM46 °FPartly sunny.3 mph87%29.71 "Hg5 mi
7:30 AM46 °FOvercast.5 mph87%29.71 "Hg4 mi
7:00 AM46 °FOvercast.3 mph87%29.71 "Hg4 mi
6:30 AM46 °FOvercast.2 mph87%29.71 "Hg5 mi
6:00 AM46 °FPassing clouds.2 mph87%29.71 "Hg5 mi
5:30 AM46 °FOvercast.2 mph87%29.71 "Hg5 mi
5:00 AM46 °FOvercast.3 mph87%29.71 "Hg5 mi
4:30 AM46 °FOvercast.5 mph87%29.71 "Hg5 mi
4:00 AM46 °FOvercast.3 mph87%29.71 "Hg4 mi
3:30 AM46 °FOvercast.2 mph87%29.74 "Hg5 mi
3:00 AM46 °FOvercast.2 mph82%29.74 "Hg5 mi
2:30 AM46 °FOvercast.3 mph87%29.74 "Hg4 mi
2:00 AM45 °FOvercast.3 mph93%29.74 "Hg4 mi
1:30 AM45 °FOvercast.3 mph93%29.74 "Hg4 mi
1:00 AM46 °FMostly cloudy.3 mph87%29.74 "Hg4 mi
12:30 AM46 °FOvercast.3 mph87%29.74 "Hg5 mi
12:00 AM46 °FOvercast.2 mph87%29.77 "Hg5 mi
11:30 PM
Apr 19
46 °FOvercast.2 mph87%29.77 "Hg5 mi
11:00 PM46 °FOvercast.2 mph87%29.77 "Hg5 mi
10:30 PM46 °FPassing clouds.3 mph87%29.77 "Hg6 mi
10:00 PM46 °FPassing clouds.2 mph87%29.80 "Hg6 mi
9:30 PM46 °FPassing clouds.5 mph87%29.80 "Hg5 mi
9:00 PM46 °FPartly sunny.2 mph87%29.80 "HgN/A
8:30 PM46 °FPartly sunny.3 mph87%29.80 "HgN/A
8:00 PM46 °FPartly sunny.3 mph82%29.80 "HgN/A
7:30 PM46 °FPartly sunny.6 mph82%29.80 "HgN/A
7:00 PM46 °FPartly sunny.5 mph82%29.80 "HgN/A
6:30 PM46 °FPartly sunny.6 mph82%29.80 "HgN/A
6:00 PM46 °FPartly sunny.6 mph82%29.80 "HgN/A
5:30 PM46 °FPartly sunny.5 mph82%29.80 "HgN/A
5:00 PM46 °FBroken clouds.8 mph76%29.80 "HgN/A
4:30 PM46 °FBroken clouds.7 mph82%29.80 "HgN/A
4:00 PM46 °FBroken clouds.8 mph82%29.80 "HgN/A
3:30 PM46 °FBroken clouds.7 mph82%29.83 "HgN/A
3:00 PM45 °FPartly sunny.8 mph87%29.83 "HgN/A
2:30 PM45 °FPartly sunny.8 mph87%29.83 "HgN/A
2:00 PM45 °FBroken clouds.8 mph87%29.83 "HgN/A
1:30 PM45 °FBroken clouds.9 mph87%29.83 "HgN/A
1:00 PM45 °FBroken clouds.10 mph81%29.83 "HgN/A
12:30 PM43 °FBroken clouds.10 mph87%29.83 "HgN/A
12:00 PM43 °FBroken clouds.5 mph87%29.83 "HgN/A
Weather by CustomWeather, © 2014

See weather overview